| time (UTC) | temp F | wind direction | speed knots | gust knots | rain 1hr in | rain 24hr in | rain mn in | humidity % | barometer mb |
| 20260504043520 | 53 | 159 | 2.6 | 4.3 | 0.00 | 0.00 | 0.00 | 64 | 1012.1 |
| 20260504042620 | 53 | 138 | 1.7 | 4.3 | 0.00 | 0.00 | 0.00 | 63 | 1012.2 |
| 20260504041720 | 53 | 173 | 5.2 | 10.4 | 0.00 | 0.00 | 0.00 | 63 | 1012.3 |
| 20260504040819 | 54 | 130 | 1.7 | 2.6 | 0.00 | 0.00 | 0.00 | 64 | 1012.4 |
| 20260504035920 | 54 | 147 | 4.3 | 6.1 | 0.00 | 0.00 | 0.00 | 63 | 1012.5 |
| 20260504035022 | 54 | 132 | 2.6 | 4.3 | 0.00 | 0.00 | 0.00 | 62 | 1012.6 |
| 20260504034120 | 54 | 168 | 0.9 | 2.6 | 0.00 | 0.00 | 0.00 | 62 | 1012.7 |
| 20260504033220 | 55 | 133 | 2.6 | 5.2 | 0.00 | 0.00 | 0.00 | 61 | 1012.8 |
| 20260504032320 | 55 | 164 | 2.6 | 4.3 | 0.00 | 0.00 | 0.00 | 61 | 1012.9 |
| 20260504031420 | 55 | 144 | 5.2 | 7.0 | 0.00 | 0.00 | 0.00 | 60 | 1012.9 |
| 20260504030520 | 55 | 140 | 4.3 | 5.2 | 0.00 | 0.00 | 0.00 | 60 | 1012.8 |
| 20260504025620 | 55 | 145 | 2.6 | 4.3 | 0.00 | 0.00 | 0.00 | 59 | 1013.0 |
| 20260504024719 | 55 | 168 | 2.6 | 7.8 | 0.00 | 0.00 | 0.00 | 59 | 1013.0 |
| 20260504023821 | 55 | 152 | 2.6 | 2.6 | 0.00 | 0.00 | 0.00 | 58 | 1013.1 |
| 20260504022921 | 56 | 156 | 2.6 | 5.2 | 0.00 | 0.00 | 0.00 | 57 | 1013.2 |
| 20260504022027 | 56 | 161 | 1.7 | 4.3 | 0.00 | 0.00 | 0.00 | 57 | 1013.2 |
| 20260504022020 | 56 | 161 | 1.7 | 4.3 | 0.00 | 0.00 | 0.00 | 57 | 1013.2 |
| 20260504021119 | 56 | 155 | 1.7 | 2.6 | 0.00 | 0.00 | 0.00 | 55 | 1013.3 |
| 20260504020219 | 56 | 135 | 1.7 | 2.6 | 0.00 | 0.00 | 0.00 | 55 | 1013.3 |
| 20260504015319 | 56 | 157 | 0.9 | 2.6 | 0.00 | 0.00 | 0.00 | 55 | 1013.2 |
| 20260504014420 | 56 | 149 | 5.2 | 5.2 | 0.00 | 0.00 | 0.00 | 54 | 1013.3 |
| 20260504013519 | 56 | 164 | 2.6 | 6.1 | 0.00 | 0.00 | 0.00 | 53 | 1013.3 |
| 20260504012620 | 56 | 187 | 1.7 | 2.6 | 0.00 | 0.00 | 0.00 | 53 | 1013.2 |
| 20260504011720 | 56 | 162 | 2.6 | 6.1 | 0.00 | 0.00 | 0.00 | 53 | 1013.4 |
| 20260504010819 | 56 | 157 | 1.7 | 2.6 | 0.00 | 0.00 | 0.00 | 53 | 1013.3 |
| 20260504005920 | 56 | 160 | 1.7 | 2.6 | 0.00 | 0.00 | 0.00 | 53 | 1013.2 |
| 20260504005019 | 57 | 160 | 0.9 | 2.6 | 0.00 | 0.00 | 0.00 | 53 | 1013.3 |
| 20260504003219 | 57 | 168 | 1.7 | 1.7 | 0.00 | 0.00 | 0.00 | 52 | 1013.3 |
| 20260504002321 | 57 | 234 | 1.7 | 2.6 | 0.00 | 0.00 | 0.00 | 52 | 1013.2 |
| 20260504001421 | 58 | 215 | 2.6 | 4.3 | 0.00 | 0.00 | 0.00 | 51 | 1013.3 |
| 20260504000520 | 58 | 219 | 2.6 | 2.6 | 0.00 | 0.00 | 0.00 | 50 | 1013.1 |
| 20260503235619 | 58 | 167 | 2.6 | 4.3 | 0.00 | 0.00 | 0.00 | 49 | 1013.2 |
| 20260503234720 | 58 | 201 | 5.2 | 8.7 | 0.00 | 0.00 | 0.00 | 48 | 1013.1 |
| 20260503233819 | 58 | 186 | 5.2 | 4.3 | 0.00 | 0.00 | 0.00 | 48 | 1013.0 |
| 20260503232920 | 58 | 174 | 2.6 | 5.2 | 0.00 | 0.00 | 0.00 | 48 | 1013.1 |
| 20260503232019 | 58 | 150 | 6.1 | 10.4 | 0.00 | 0.00 | 0.00 | 47 | 1013.2 |
| 20260503231120 | 58 | 151 | 7.0 | 7.8 | 0.00 | 0.00 | 0.00 | 47 | 1013.1 |
| 20260503230220 | 58 | 217 | 6.1 | 10.4 | 0.00 | 0.00 | 0.00 | 47 | 1013.3 |
| 20260503225319 | 58 | 203 | 4.3 | 6.1 | 0.00 | 0.00 | 0.00 | 49 | 1013.4 |
| 20260503224420 | 58 | 207 | 5.2 | 7.8 | 0.00 | 0.00 | 0.00 | 49 | 1013.4 |
| 20260503223520 | 58 | 154 | 2.6 | 7.0 | 0.00 | 0.00 | 0.00 | 51 | 1013.6 |
| 20260503222620 | 58 | 181 | 7.0 | 7.8 | 0.00 | 0.00 | 0.00 | 51 | 1013.8 |
| 20260503221720 | 57 | 172 | 7.8 | 12.2 | 0.00 | 0.00 | 0.00 | 51 | 1014.1 |
| 20260503215921 | 54 | 93 | 1.7 | 5.2 | 0.00 | 0.00 | 0.00 | 66 | 1014.3 |
| 20260503215603 | 54 | 100 | 0.9 | 2.6 | 0.00 | 0.00 | 0.00 | 68 | 1014.5 |
| 20260503214705 | 54 | 108 | 0.0 | 0.9 | 0.00 | 0.00 | 0.00 | 67 | 1014.6 |
| 20260503213803 | 53 | 65 | 0.9 | 1.7 | 0.00 | 0.00 | 0.00 | 68 | 1014.8 |
| 20260503212904 | 53 | 93 | 1.7 | 2.6 | 0.00 | 0.00 | 0.00 | 66 | 1015.0 |
| 20260503212004 | 53 | 1 | 0.0 | 1.7 | 0.00 | 0.00 | 0.00 | 71 | 1015.1 |
| 20260503211104 | 53 | 74 | 0.9 | 1.7 | 0.00 | 0.00 | 0.00 | 69 | 1015.1 |
| 20260503210204 | 53 | 104 | 0.9 | 0.9 | 0.00 | 0.00 | 0.00 | 70 | 1015.3 |
| 20260503204403 | 52 | 91 | 0.9 | 1.7 | 0.00 | 0.00 | 0.00 | 71 | 1015.5 |
| 20260503203503 | 50 | 261 | 0.0 | 0.9 | 0.00 | 0.00 | 0.00 | 76 | 1015.8 |
| 20260503202603 | 49 | 32 | 0.0 | 1.7 | 0.00 | 0.00 | 0.00 | 77 | 1016.0 |
| 20260503201703 | 49 | 39 | 0.0 | 0.0 | 0.00 | 0.00 | 0.00 | 73 | 1016.5 |
| 20260503200803 | 50 | 233 | 0.0 | 1.7 | 0.00 | 0.00 | 0.00 | 69 | 1016.9 |
| 20260503195903 | 51 | 355 | 0.9 | 1.7 | 0.00 | 0.00 | 0.00 | 64 | 1017.5 |
| 20260503195005 | 54 | 220 | 6.1 | 10.4 | 0.00 | 0.00 | 0.00 | 56 | 1017.9 |
| 20260503194104 | 55 | 217 | 10.4 | 13.9 | 0.00 | 0.00 | 0.00 | 49 | 1017.3 |
| 20260503193203 | 57 | 234 | 7.8 | 11.3 | 0.00 | 0.00 | 0.00 | 43 | 1016.9 |
| 20260503192305 | 57 | 253 | 2.6 | 6.1 | 0.00 | 0.00 | 0.00 | 43 | 1016.5 |
| 20260503191406 | 57 | 238 | 4.3 | 10.4 | 0.00 | 0.00 | 0.00 | 42 | 1016.6 |
| 20260503190503 | 58 | 221 | 6.1 | 7.0 | 0.00 | 0.00 | 0.00 | 40 | 1016.8 |
| 20260503185604 | 59 | 249 | 5.2 | 8.7 | 0.00 | 0.00 | 0.00 | 40 | 1017.0 |
| 20260503184705 | 59 | 222 | 5.2 | 7.0 | 0.00 | 0.00 | 0.00 | 41 | 1017.2 |
| 20260503183804 | 59 | 256 | 6.1 | 12.2 | 0.00 | 0.00 | 0.00 | 40 | 1017.3 |
| 20260503182903 | 60 | 212 | 7.0 | 14.8 | 0.00 | 0.00 | 0.00 | 42 | 1017.5 |
| 20260503182003 | 59 | 216 | 8.7 | 11.3 | 0.00 | 0.00 | 0.00 | 40 | 1017.6 |
| 20260503181104 | 59 | 250 | 8.7 | 10.4 | 0.00 | 0.00 | 0.00 | 41 | 1017.7 |
| 20260503180203 | 59 | 199 | 6.1 | 10.4 | 0.00 | 0.00 | 0.00 | 43 | 1017.7 |
| 20260503175305 | 59 | 231 | 6.1 | 7.0 | 0.00 | 0.00 | 0.00 | 43 | 1017.8 |
| 20260503174404 | 58 | 262 | 5.2 | 10.4 | 0.00 | 0.00 | 0.00 | 41 | 1018.0 |
| 20260503173503 | 58 | 234 | 6.1 | 13.0 | 0.00 | 0.00 | 0.00 | 44 | 1018.1 |
| 20260503172603 | 58 | 194 | 7.8 | 12.2 | 0.00 | 0.00 | 0.00 | 43 | 1018.1 |
| 20260503171704 | 57 | 210 | 7.0 | 13.9 | 0.00 | 0.00 | 0.00 | 42 | 1018.3 |
| 20260503170804 | 58 | 215 | 10.4 | 14.8 | 0.00 | 0.00 | 0.00 | 40 | 1018.4 |
| 20260503150203 | 54 | 242 | 5.2 | 13.9 | 0.00 | 0.00 | 0.00 | 53 | 1019.9 |
| 20260503131403 | 46 | 250 | 1.7 | 4.3 | 0.00 | 0.00 | 0.00 | 67 | 1020.0 |
| 20260503130504 | 45 | 243 | 1.7 | 5.2 | 0.00 | 0.00 | 0.00 | 70 | 1020.2 |
| 20260503120204 | 37 | 246 | 0.9 | 1.7 | 0.00 | 0.00 | 0.00 | 81 | 1020.3 |
| 20260503080804 | 34 | 202 | 0.0 | 0.0 | 0.00 | 0.00 | 0.00 | 85 | 1019.2 |
| 20260503072305 | 35 | 247 | 0.0 | 0.0 | 0.00 | 0.00 | 0.00 | 83 | 1019.2 |
| 20260503071402 | 35 | 247 | 0.0 | 0.0 | 0.00 | 0.00 | 0.00 | 84 | 1019.4 |
| 20260503070504 | 34 | 300 | 0.0 | 0.0 | 0.00 | 0.00 | 0.00 | 85 | 1019.4 |
| 20260503060205 | 34 | 302 | 0.0 | 0.9 | 0.00 | 0.00 | 0.00 | 86 | 1019.9 |
| 20260503054402 | 35 | 302 | 0.0 | 0.9 | 0.00 | 0.00 | 0.00 | 85 | 1019.9 |
| 20260503053504 | 35 | 302 | 0.0 | 0.0 | 0.00 | 0.00 | 0.00 | 85 | 1019.9 |
| 20260503052604 | 35 | 302 | 0.0 | 0.9 | 0.00 | 0.00 | 0.00 | 84 | 1020.0 |
| 20260503051702 | 35 | 302 | 0.0 | 0.9 | 0.00 | 0.00 | 0.00 | 84 | 1019.9 |
| 20260503050804 | 35 | 302 | 0.0 | 0.0 | 0.00 | 0.00 | 0.00 | 84 | 1019.9 |
| 20260503045904 | 35 | 302 | 0.0 | 0.0 | 0.00 | 0.00 | 0.00 | 84 | 1019.9 |
| 20260503045002 | 35 | 302 | 0.0 | 0.0 | 0.00 | 0.00 | 0.00 | 83 | 1019.8 |
| 20260503044103 | 36 | 302 | 0.0 | 0.0 | 0.00 | 0.00 | 0.00 | 82 | 1019.7 |